Regional Weather Roundup
Issued by NWS

Home | Current Version | Previous Version | Text Only | Print | Product List | Glossary On
Versions: 1 2 3 4 5 6 7 8 9 10 11 12 13 14 15 16 17 18 19 20 21 22 23 24 25 26 27 28 29 30 31 32 33 34 35 36 37 38 39 40 41 42 43 44 45 46 47 48 49 50
000
ASUS45 KPSR 221810
RWRAZ

ARIZONA REGIONAL HOURLY WEATHER ROUNDUP
NATIONAL WEATHER SERVICE PHOENIX AZ
1100 AM MST FRI AUG 22 2014

NOTE: FAIR INDICATES FEW OR NO CLOUDS BELOW 12,000 FEET WITH NO
SIGNIFICANT WEATHER AND/OR OBSTRUCTIONS TO VISIBILITY.

AZZ001>003-036-221900-
NORTHWEST ARIZONA

CITY           SKY/WX    TMP DP  RH WIND       PRES   REMARKS
BULLHEAD CITY  SUNNY     84  57  39 SW7       29.95F
KINGMAN        SUNNY     76  57  51 W5        30.08S
6HR MIN TEMP:  58; 6HR MAX TEMP:  77;

$$

AZZ004>008-015-016-018-221900-
NORTH CENTRAL ARIZONA

CITY           SKY/WX    TMP DP  RH WIND       PRES   REMARKS
GRAND CANYON   MOSUNNY   63  52  67 SW12      30.26S
WILLIAMS       MOSUNNY   64  46  52 W10G17    30.33S
PRESCOTT       MOSUNNY   72  49  44 SE8       30.17F
6HR MIN TEMP:  58; 6HR MAX TEMP:  72;

FLAGSTAFF      CLOUDY    61  50  67 S9        30.28F
6HR MIN TEMP:  52; 6HR MAX TEMP:  61; 6HR PCP: TRACE;

PAYSON         PTSUNNY   72  54  53 VRB7      30.21F
PAGE           SUNNY     76  54  46 VRB3      30.10F
6HR MIN TEMP:  64; 6HR MAX TEMP:  76;

$$

AZZ009>014-017-221900-
NORTHEAST ARIZONA

CITY           SKY/WX    TMP DP  RH WIND       PRES   REMARKS
WINSLOW        MOSUNNY   76  51  41 NW5       30.16F
6HR MIN TEMP:  56; 6HR MAX TEMP:  76;

SAINT JOHNS    MOSUNNY   72  52  49 CALM      30.20F
6HR MIN TEMP:  56; 6HR MAX TEMP:  72;

WINDOW ROCK    PTSUNNY   69  51  52 S14       30.25
6HR MIN TEMP:  51; 6HR MAX TEMP:  69;

SHOW LOW       PTSUNNY   66  50  55 W10       30.27S
$$

AZZ023-221900-
GREATER PHOENIX AREA

CITY           SKY/WX    TMP DP  RH WIND       PRES   REMARKS
PHOENIX        PTSUNNY   83  65  54 VRB6      29.97F
6HR MIN TEMP:  72; 6HR MAX TEMP:  83;

BUCKEYE          N/A     81  68  65 SE6       29.99S
GLENDALE       PTSUNNY   82  66  57 VRB5      30.00S
LUKE AFB       NOT AVBL
6HR MIN TEMP:  70; 6HR MAX TEMP:  82;

DEER VALLEY    PTSUNNY   81  64  56 SE5       29.99F
6HR MIN TEMP:  69; 6HR MAX TEMP:  82; 6HR PCP:  0.01;

SCOTTSDALE     SUNNY     83  65  54 CALM      30.01F
6HR MIN TEMP:  70; 6HR MAX TEMP:  83;

MESA-GATEWAY   MOSUNNY   81  64  57 CALM      30.02S
CHANDLER       PTSUNNY   81  64  57 VRB3      30.00S
$$

AZZ027-028-221900-
SOUTHWEST MARICOPA COUNTY AND PINAL COUNTY

CITY           SKY/WX    TMP DP  RH WIND       PRES   REMARKS
CASA GRANDE    MOSUNNY   84  59  42 CALM      30.00F
6HR MIN TEMP:  66; 6HR MAX TEMP:  84;

GILA BEND      PTCLDY    86  66  51 W1        29.79F
$$

AZZ503-504-507>509-221900-
SOUTHEAST ARIZONA

CITY           SKY/WX    TMP DP  RH WIND       PRES   REMARKS
TUCSON         MOSUNNY   86  56  35 VRB3      30.07F
6HR MIN TEMP:  69; 6HR MAX TEMP:  86;

DAVIS-MONTHAN  MOSUNNY   82  57  41 VRB6      30.05F
6HR MIN TEMP:  67; 6HR MAX TEMP:  83;

RYAN FIELD       N/A     84  59  42 CALM      30.06F
NOGALES        PTSUNNY   77  58  51 CALM      30.14S
6HR MIN TEMP:  62; 6HR MAX TEMP:  78;

DOUGLAS        SUNNY     78  58  49 CALM      30.15S
6HR MIN TEMP:  60; 6HR MAX TEMP:  79;

SAFFORD        SUNNY     83  56  39 VRB7      30.06F
6HR MIN TEMP:  68; 6HR MAX TEMP:  83;

$$

AZZ020-021-025-026-031-221900-
SOUTHWEST ARIZONA

CITY           SKY/WX    TMP DP  RH WIND       PRES   REMARKS
YUMA           MOSUNNY   85  62  46 NE5       29.94S
6HR MIN TEMP:  72; 6HR MAX TEMP:  86;

$$

CAZ031-033-041-043-047-048-061-221900-
SOUTHERN CALIFORNIA

CITY           SKY/WX    TMP DP  RH WIND       PRES   REMARKS
DOWNTOWN L.A.  MOSUNNY   79  64  60 VRB3      29.97S
6HR MIN TEMP:  66; 6HR MAX TEMP:  79;

L.A. AIRPORT   PTSUNNY   73  63  70 W10       30.00R
6HR MIN TEMP:  67; 6HR MAX TEMP:  73;

SAN DIEGO      SUNNY     76  64  66 VRB7      29.99R
6HR MIN TEMP:  69; 6HR MAX TEMP:  76;

BURBANK        SUNNY     78  60  53 S5        29.98S
6HR MIN TEMP:  66; 6HR MAX TEMP:  78;

ONTARIO        MOSUNNY   81  61  50 VRB5      29.99R
6HR MIN TEMP:  66; 6HR MAX TEMP:  81;

RIVERSIDE      SUNNY     80  62  54 CALM      29.98S
6HR MIN TEMP:  67; 6HR MAX TEMP:  80;

PALM SPRINGS   SUNNY     86  60  41 VRB6      29.96F
6HR MIN TEMP:  74; 6HR MAX TEMP:  86;

EL CENTRO NAS  SUNNY     83  65  54 N6        29.93F
6HR MIN TEMP:  68; 6HR MAX TEMP:  83;

IMPERIAL       SUNNY     82  65  56 NE5       29.93F
6HR MIN TEMP:  68; 6HR MAX TEMP:  82;

BLYTHE         SUNNY     80  65  59 CALM      29.95F
6HR MIN TEMP:  68; 6HR MAX TEMP:  80;

NEEDLES        SUNNY     87  57  35 SW7       29.95F
6HR MIN TEMP:  74; 6HR MAX TEMP:  88;

$$

NVZ020-UTZ003-221900-
SOUTHERN NEVADA-UTAH

CITY           SKY/WX    TMP DP  RH WIND       PRES   REMARKS
LAS VEGAS      SUNNY     84  53  34 VRB3      29.95F
6HR MIN TEMP:  70; 6HR MAX TEMP:  84;

SALT LAKE CITY PTSUNNY   76  46  34 S12       29.98S
6HR MIN TEMP:  67; 6HR MAX TEMP:  77;

$$

NMZ009-TXZ055-221900-
NEW MEXICO-WEST TEXAS

CITY           SKY/WX    TMP DP  RH WIND       PRES   REMARKS
ALBUQUERQUE    LGT RAIN  63  57  81 N5        30.23S
6HR MIN TEMP:  61; 6HR MAX TEMP:  70; 6HR PCP:  0.15;

EL PASO        CLOUDY    72  62  71 SE5       30.13F
6HR MIN TEMP:  65; 6HR MAX TEMP:  73; 6HR PCP:  0.03;

$$


........................KEY........................
SKY/WX - SKY CONDITION/WEATHER
TMP    - TEMPERATURE IN FAHRENHEIT
DP     - DEW POINT IN FAHRENHEIT
RH     - RELATIVE HUMIDITY IN PERCENT
WIND   - DIRECTION AND SPEED IN MILES PER HOUR (MPH)
VRB    - VARIABLE WIND DIRECTION
PRES   - MEAN SEA LEVEL PRESSURE IN INCHES OF MERCURY
         F - FALLING PRESSURE   R - RISING PRESSURE
         S - STEADY PRESSURE
VSB    - VISIBILITY IN MILES
HX     - HEAT INDEX IN FAHRENHEIT
WCI    - WIND CHILL INDEX IN FAHRENHEIT
TC     - TEMPERATURE IN CELSIUS WHICH IS ALSO KNOWN AS
         TEMPERATURE IN CENTIGRADE
AFB    - AIR FORCE BASE
         LUKE AFB IS LUKE AIR FORCE BASE
         DAVIS-MONTHAN IS DAVIS-MONTHAN AIR FORCE BASE
NAS    - NAVAL AIR STATION
         EL CENTRO NAS IS EL CENTRO NAVAL AIR STATION
N/A    - NOT AVAILABLE


USA.gov is the U.S. government's official web portal to all federal, state and local government web resources and services.